Location: Lane
(33.5226°N, 79.8788°W)
Time: 23:29:51
(UTC+00:00)

Vanguard 1 Rocket - Pass Details

Date: 03 October 2022
Orbit: 650 x 4225 km, 34.3° (Epoch: 05 December)

Event Time Altitude Azimuth Distance (km) Brightness Sun altitude
Rises 22:56:36 0° 226° (SW) 8,436 13.2 0.1°
Reaches altitude 10° 23:02:44 10° 222° (SW) 7,416 12.8 -1.2°
Maximum altitude 23:26:54 57° 152° (SSE) 3,754 10.4 -6.2°
Drops below altitude 10° 23:41:35 10° 79° (ENE) 4,814 10.4 -9.3°
Enters shadow 23:41:51 - 78° (ENE) 4,864 10.5 -9.3°
